Weather History for Denver, CO

Change the Weather History Date:

Wednesday, January 9, 2013

  Actual Average (KDEN) Record (KDEN)
Temperature  
Mean Temperature 36 °F 31 °F  
Max Temperature 46 °F 44 °F 72 °F (1953)
Min Temperature 26 °F 18 °F -29 °F (1875)
Degree Days  
Heating Degree Days 29 34  
Month to date heating degree days 311  
Since 1 July heating degree days 2779  
Cooling Degree Days 0 0  
Month to date cooling degree days 0  
Year to date cooling degree days 0  
Moisture  
Dew Point 20 °F    
Average Humidity 56    
Maximum Humidity 74    
Minimum Humidity 37    
Precipitation  
Precipitation 0.00 in 0.01 in 0.43 in (2011)
Month to date precipitation 0.12  
Year to date precipitation 0.12  
Snow  
Snow 0.00 in - - ()
Month to date snowfall  
Since 1 July snowfall  
Snow Depth -    
Sea Level Pressure  
Sea Level Pressure 30.18 in    
Wind  
Wind Speed 11 mph (SSW)    
Max Wind Speed 26 mph    
Max Gust Speed 33 mph    
Visibility 10 miles    
Events      
T = Trace of Precipitation, MM = Missing Value Source: NWS Daily Summary

Daily Weather History Graph

Daily Weather History Graph

Search for Another Location

Airport:

Trip Planner

Search our weather history database for the weather conditions in past years. The results will help you decide how hot, cold, wet, or windy it might be!

Date:

Astronomy

Jan. 09, 2013 Rise Set
Actual Time 7:19 AM MST 4:52 PM MST
Civil Twilight 6:49 AM MST 5:21 PM MST
Nautical Twilight 6:15 AM MST 5:55 PM MST
Astronomical Twilight 5:43 AM MST 6:28 PM MST
Moon 5:01 AM MST (1/9) 2:56 PM MST (1/9)
Length of Visible Light 10h 32m
Length of Day
9h 32m
Waning Crescent, 6% of the Moon is Illuminated
Jan 9
Waning Crescent
Jan 11
New
Jan 18
First Quarter
Jan 26
Full
Feb 3
Last Quarter

Hourly Weather History & Observations

Time (MST) Temp. Windchill Dew Point Humidity Pressure Visibility Wind Dir Wind Speed Gust Speed Precip Events Conditions
12:04 AM 33.8 °F 25.3 °F 21.2 °F 60% 30.20 in 10.0 mi SSW 11.5 mph - N/A   Clear
12:23 AM 32.0 °F 23.6 °F 21.2 °F 64% 30.20 in 10.0 mi SSW 10.4 mph - N/A   Clear
12:44 AM 32.0 °F 23.6 °F 21.2 °F 64% 30.20 in 10.0 mi SSW 10.4 mph - N/A   Clear
1:03 AM 30.2 °F - 21.2 °F 69% 30.21 in 10.0 mi Calm Calm - N/A   Clear
1:24 AM 32.0 °F 27.5 °F 21.2 °F 64% 30.22 in 10.0 mi SSW 4.6 mph - N/A   Clear
1:44 AM 32.0 °F 27.5 °F 19.4 °F 60% 30.22 in 10.0 mi WSW 4.6 mph - N/A   Clear
2:04 AM 32.0 °F 24.8 °F 19.4 °F 60% 30.22 in 10.0 mi SW 8.1 mph - N/A   Clear
2:24 AM 33.8 °F 26.4 °F 19.4 °F 56% 30.22 in 10.0 mi SW 9.2 mph - N/A   Clear
2:44 AM 35.6 °F 29.2 °F 19.4 °F 52% 30.22 in 10.0 mi SW 8.1 mph - N/A   Clear
3:04 AM 32.0 °F 25.6 °F 19.4 °F 60% 30.22 in 10.0 mi South 6.9 mph - N/A   Clear
3:24 AM 30.2 °F 23.4 °F 19.4 °F 64% 30.22 in 10.0 mi SSW 6.9 mph - N/A   Clear
3:44 AM 32.0 °F 25.6 °F 19.4 °F 60% 30.22 in 10.0 mi SW 6.9 mph - N/A   Clear
4:04 AM 30.2 °F 22.6 °F 19.4 °F 64% 30.22 in 10.0 mi SW 8.1 mph - N/A   Clear
4:24 AM 30.2 °F 21.9 °F 19.4 °F 64% 30.21 in 10.0 mi SW 9.2 mph - N/A   Clear
4:45 AM 32.0 °F 24.8 °F 19.4 °F 60% 30.21 in 10.0 mi SW 8.1 mph - N/A   Clear
5:04 AM 30.2 °F 24.3 °F 19.4 °F 64% 30.22 in 10.0 mi South 5.8 mph - N/A   Clear
5:25 AM 30.2 °F 22.6 °F 19.4 °F 64% 30.23 in 10.0 mi SSW 8.1 mph - N/A   Clear
5:45 AM 30.2 °F 24.3 °F 17.6 °F 60% 30.24 in 10.0 mi South 5.8 mph - N/A   Clear
6:25 AM 28.4 °F 19.7 °F 19.4 °F 69% 30.25 in 10.0 mi SSE 9.2 mph - N/A   Clear
6:44 AM 26.6 °F 18.2 °F 19.4 °F 74% 30.25 in 10.0 mi South 8.1 mph - N/A   Clear
6:50 AM 26.6 °F 18.2 °F 17.6 °F 69% 30.26 in 50.0 mi South 8.1 mph - N/A   Partly Cloudy
6:58 AM 26.6 °F 18.2 °F 19.4 °F 74% 30.26 in 10.0 mi South 8.1 mph - N/A   Clear
7:50 AM 30.2 °F 20.8 °F 19.4 °F 64% 30.27 in 50.0 mi South 11.5 mph - N/A   Partly Cloudy
8:52 AM 41.0 °F 32.2 °F 21.2 °F 45% 30.29 in 50.0 mi South 18.4 mph 26.5 mph N/A   Partly Cloudy
9:50 AM 46.4 °F 39.5 °F 21.2 °F 37% 30.29 in 50.0 mi South 17.3 mph 23.0 mph N/A   Partly Cloudy
9:03 PM 41.0 °F 33.5 °F 19.4 °F 42% 30.05 in 10.0 mi South 13.8 mph - N/A   Clear
9:23 PM 41.0 °F 31.1 °F 17.6 °F 39% 30.03 in 10.0 mi SSW 23.0 mph 28.8 mph N/A   Clear
9:44 PM 42.8 °F 32.9 °F 19.4 °F 39% 30.03 in 10.0 mi SSW 26.5 mph 32.2 mph N/A   Clear
10:04 PM 42.8 °F 33.1 °F 19.4 °F 39% 30.02 in 10.0 mi South 25.3 mph 33.4 mph N/A   Clear
10:24 PM 41.0 °F 30.7 °F 19.4 °F 42% 30.02 in 10.0 mi South 25.3 mph 31.1 mph N/A   Clear
10:44 PM 42.8 °F 33.8 °F 19.4 °F 39% 30.02 in 10.0 mi South 21.9 mph 27.6 mph N/A   Clear
11:04 PM 41.0 °F 31.4 °F 19.4 °F 42% 30.01 in 10.0 mi South 21.9 mph 26.5 mph N/A   Clear
11:24 PM 41.0 °F 31.6 °F 19.4 °F 42% 30.01 in 10.0 mi South 20.7 mph 31.1 mph N/A   Clear
11:44 PM 41.0 °F 31.6 °F 19.4 °F 42% 30.00 in 10.0 mi South 20.7 mph 27.6 mph N/A   Clear